Lid_Strength_Index
6 8 9 7 7 7 8 8 9 8 7 8 9 9 8 6 6 6 6 5 5 4 2 3 2 1 1 0 0 -0 -0 -1 -0 0 1 0 1 -1 -1 -1 -1 -2 -2 -2
8 9 6 6 6 7 8 9 9 8 7 8 9 9 7 7 6 6 5 5 5 4 3 3 2 1 1 1 0 -0 -0 -0 -0 -0 -0 -0 -1 -1 -1 -2 -2 -2 -2 -2
9 7 5 6 7 7 7 8 8 9 8 8 9 10 9 7 6 5 5 4 4 4 4 3 2 2 1 1 1 0 -0 -0 -0 -1 -0 -0 -1 -0 -0 -0 -1 -1 -1 -2
7 5 6 6 7 6 8 6 7 9 9 11 8 13 10 8 8 7 6 5 4 4 3 3 2 2 2 1 0 0 -0 -0 -0 -1 -0 -0 1 1 -0 -0 -1 -1 -1 -1
8 7 7 7 7 6 8 6 7 8 8 9 10 11 11 8 10 8 6 5 4 4 3 3 2 2 1 1 1 0 -0 -0 -1 -1 -1 0 1 0 -0 -1 -0 -1 -1 -1
6 4 5 6 5 5 6 7 8 8 8 11 10 10 10 10 9 7 6 5 4 4 3 3 2 2 1 1 1 1 0 0 -0 -0 -0 -0 0 0 0 0 0 -0 -1 -1
6 6 5 5 6 6 6 8 10 11 11 12 8 10 9 7 7 6 6 5 4 3 3 3 3 2 2 1 1 1 1 1 -0 -0 -0 -0 -0 -0 0 0 0 0 -0 -1
9 9 6 5 6 7 7 7 9 13 11 10 9 10 10 6 5 5 4 4 4 4 3 3 2 2 2 1 1 1 1 1 0 -0 -0 -0 -1 0 0 -0 0 0 -0 -1
8 8 5 5 5 5 7 8 6 9 8 10 9 8 7 6 6 5 5 5 5 4 3 3 2 2 2 1 1 1 1 0 0 0 0 -0 -0 -0 -0 -1 -1 -0 -1 -1
7 9 6 6 5 6 6 5 8 8 12 13 10 9 8 8 8 7 6 5 5 4 3 3 2 2 1 1 1 0 0 1 0 0 0 0 -0 -0 -0 -0 -0 -1 -1 -1
6 7 7 6 7 7 7 7 7 7 8 11 11 9 6 7 6 7 6 5 4 4 4 3 2 2 1 1 1 1 1 1 1 0 -0 -0 -0 -0 -0 -0 -0 -1 -1 -1
5 6 8 7 5 5 5 6 7 9 10 8 9 9 6 6 5 5 5 5 4 3 3 3 2 2 2 2 1 1 1 1 1 0 -0 0 -0 -0 -0 -0 -0 -1 -1 -1
5 7 9 8 7 6 7 6 6 6 7 9 10 10 6 6 5 5 5 5 4 4 3 3 3 3 2 2 1 1 1 1 0 0 0 0 0 0 0 -0 -0 -1 -1 -1
4 6 8 9 8 7 7 7 6 7 9 9 8 8 7 7 6 5 5 5 4 4 4 3 3 3 2 2 1 1 1 1 0 0 0 0 0 0 0 -0 -0 -0 -1 -0
5 7 7 7 6 7 7 7 7 7 7 8 7 7 6 5 6 5 5 5 5 4 4 4 3 3 2 2 2 1 1 1 0 0 1 1 0 -0 -0 -0 -0 -0 -0 -0
5 7 7 7 7 7 7 7 7 7 7 7 7 7 4 4 4 5 5 5 5 4 4 3 3 2 2 2 2 1 1 1 0 1 1 0 0 0 0 0 0 0 0 0
6 7 8 9 7 7 8 7 7 6 6 6 7 6 5 6 6 5 5 4 4 4 4 3 3 2 2 2 1 2 1 1 1 1 1 1 0 1 1 0 0 1 1 0
7 7 7 9 8 12 7 5 5 6 6 5 5 5 5 5 4 4 3 4 4 4 3 3 3 2 2 1 1 1 1 1 1 1 1 1 1 1 0 0 1 0 0 0
5 7 9 10 10 8 7 6 6 6 7 6 6 5 5 4 4 5 3 3 3 3 3 3 2 2 2 2 1 1 1 1 1 1 1 1 1 1 1 1 0 -0 0 0
5 5 8 9 11 12 7 6 5 5 9 6 6 6 6 5 7 6 3 3 3 2 2 2 2 2 2 2 1 2 2 2 2 1 1 0 0 0 0 0 0 -0 -0 0
8 8 9 9 10 8 6 5 5 10 9 5 5 5 5 6 5 3 3 3 2 2 2 2 2 2 2 1 1 2 2 2 1 0 0 0 -0 0 -0 -0 -0 -0 -0 -0
9 9 9 8 10 11 5 6 8 7 5 5 5 4 5 4 4 3 3 3 3 3 2 2 2 2 2 1 1 2 2 1 0 0 0 0 0 0 0 -0 -0 -0 -0 0
10 8 9 9 9 5 5 5 4 4 5 4 4 4 4 4 4 3 3 3 3 2 2 2 2 2 2 1 1 2 1 0 0 1 1 0 0 -0 -0 0 0 1 0 1
7 5 8 8 6 6 6 5 5 5 5 5 4 3 3 4 3 3 3 3 3 3 3 2 2 3 2 1 1 1 1 0 1 1 1 1 1 1 0 0 0 1 1 1
6 7 7 7 6 5 4 4 5 5 5 5 4 4 4 3 3 3 3 3 2 2 2 2 2 2 2 2 1 1 0 0 1 1 1 1 1 1 1 0 1 0 0 1
6 7 8 7 5 5 5 5 5 5 5 4 5 5 4 3 3 2 3 2 2 2 2 2 2 2 2 1 1 1 0 0 1 1 1 1 1 1 1 1 1 6 6 7